Weather History for KIZG - March, 2014

Change the Weather History Date:

Saturday, March 15, 2014

  Actual Average Record
Temperature  
Mean Temperature 37 °F -  
Max Temperature 48 °F 36 °F 54 °F (2007)
Min Temperature 28 °F 16 °F 10 °F (2013)
Degree Days  
Heating Degree Days 28    
Moisture  
Dew Point 26 °F    
Average Humidity 66    
Maximum Humidity 82    
Minimum Humidity 48    
Precipitation  
Precipitation 0.00 in - - ()
Sea Level Pressure  
Sea Level Pressure 29.70 in    
Wind  
Wind Speed 5 mph (SW)    
Max Wind Speed 16 mph    
Max Gust Speed 23 mph    
Visibility 10 miles    
Events Rain    
Averages and records for this station are not official NWS values.
T = Trace of Precipitation, MM = Missing Value Source: NWS Daily Summary

Daily Weather History Graph

Daily Weather History Graph

Search for Another Location

Airport or City:

Trip Planner

Search our weather history database for the weather conditions in past years. The results will help you decide how hot, cold, wet, or windy it might be!

Date:

Astronomy

Mar. 15, 2014 Rise Set
Actual Time 6:56 AM EDT 6:49 PM EDT
Civil Twilight 6:27 AM EDT 7:18 PM EDT
Nautical Twilight 5:53 AM EDT 7:52 PM EDT
Astronomical Twilight 5:19 AM EDT 8:26 PM EDT
Moon 6:05 PM EDT (3/15) 6:07 AM EDT (3/15)
Length of Visible Light 12h 51m
Length of Day
11h 53m
Waxing Gibbous, 99% of the Moon is Illuminated
Mar 15
Waxing Gibbous
Mar 16
Full
Mar 23
Last Quarter
Mar 30
New
Apr 7
First Quarter

Hourly Weather History & Observations

Time (EDT) Temp. Windchill Dew Point Humidity Pressure Visibility Wind Dir Wind Speed Gust Speed Precip Events Conditions
12:54 AM 28.9 °F 22.8 °F 18.0 °F 64% 29.82 in 10.0 mi South 5.8 mph - N/A   Overcast
1:54 AM 30.9 °F 24.3 °F 19.9 °F 64% 29.80 in 10.0 mi SSE 6.9 mph - N/A   Overcast
2:54 AM 28.9 °F 23.9 °F 21.0 °F 72% 29.78 in 10.0 mi SSE 4.6 mph - N/A   Overcast
3:54 AM 30.0 °F 26.5 °F 21.9 °F 72% 29.74 in 10.0 mi South 3.5 mph - N/A   Overcast
4:54 AM 28.9 °F - 21.9 °F 75% 29.72 in 10.0 mi Calm Calm - N/A   Overcast
5:54 AM 28.0 °F - 23.0 °F 81% 29.71 in 10.0 mi Calm Calm - N/A   Overcast
6:54 AM 28.9 °F 25.2 °F 23.0 °F 78% 29.69 in 10.0 mi NE 3.5 mph - N/A   Overcast
7:54 AM 28.9 °F - 24.1 °F 82% 29.69 in 10.0 mi Calm Calm - N/A   Overcast
8:54 AM 30.9 °F - 24.1 °F 76% 29.68 in 10.0 mi Calm Calm - N/A   Mostly Cloudy
9:54 AM 34.0 °F 31.0 °F 24.1 °F 67% 29.67 in 10.0 mi NE 3.5 mph - N/A   Mostly Cloudy
10:54 AM 36.0 °F - 27.0 °F 70% 29.66 in 10.0 mi Calm Calm - N/A   Overcast
11:54 AM 44.1 °F 39.5 °F 30.9 °F 60% 29.63 in 10.0 mi SSW 8.1 mph - N/A   Partly Cloudy
12:54 PM 46.0 °F 40.2 °F 30.9 °F 56% 29.62 in 10.0 mi SW 12.7 mph 19.6 mph N/A   Mostly Cloudy
1:54 PM 46.0 °F 39.3 °F 30.9 °F 56% 29.62 in 10.0 mi WSW 16.1 mph 21.9 mph N/A   Partly Cloudy
2:54 PM 46.0 °F 41.0 °F 30.0 °F 54% 29.62 in 10.0 mi WSW 10.4 mph 18.4 mph N/A   Overcast
3:54 PM 45.0 °F 39.3 °F 30.9 °F 58% 29.63 in 10.0 mi WSW 11.5 mph 23.0 mph N/A   Mostly Cloudy
4:54 PM 44.1 °F 40.1 °F 34.0 °F 68% 29.65 in 9.0 mi Variable 6.9 mph 21.9 mph 0.00 in Rain Light Rain
5:54 PM 44.1 °F 42.5 °F 30.9 °F 60% 29.68 in 10.0 mi NW 3.5 mph - 0.00 in   Overcast
6:54 PM 39.9 °F 37.8 °F 32.0 °F 73% 29.72 in 10.0 mi NW 3.5 mph - N/A   Mostly Cloudy
7:54 PM 37.9 °F 32.7 °F 30.9 °F 76% 29.74 in 10.0 mi Variable 6.9 mph - N/A   Overcast
8:54 PM 39.9 °F 33.4 °F 28.0 °F 63% 29.75 in 10.0 mi West 10.4 mph 18.4 mph 0.00 in   Partly Cloudy
9:54 PM 37.9 °F 35.5 °F 26.1 °F 62% 29.75 in 10.0 mi SW 3.5 mph - N/A   Partly Cloudy
10:54 PM 37.9 °F 33.5 °F 21.9 °F 53% 29.75 in 10.0 mi WSW 5.8 mph - N/A   Mostly Cloudy
11:54 PM 37.9 °F 29.2 °F 19.9 °F 48% 29.78 in 10.0 mi NW 15.0 mph 23.0 mph N/A   Overcast